Chillicothe, MO

10:53 AM CDT on May 25, 2017 (GMT -0500)
Chillicothe

Weather History for KCDJ - December, 2013

Change the Weather History Date:

Sunday, December 1, 2013

  Actual Average (KIRK) Record (KIRK)
Temperature  
Mean Temperature 40 °F -  
Max Temperature 54 °F 41 °F 66 °F (1970)
Min Temperature 25 °F 26 °F 3 °F (1985)
Degree Days  
Heating Degree Days 26    
Moisture  
Dew Point 29 °F    
Average Humidity 70    
Maximum Humidity 89    
Minimum Humidity 43    
Precipitation  
Precipitation 0.00 in - - ()
Sea Level Pressure  
Sea Level Pressure 30.09 in    
Wind  
Wind Speed 1 mph (NE)    
Max Wind Speed 5 mph    
Max Gust Speed -    
Averages and records for this station are not official NWS values.
T = Trace of Precipitation, MM = Missing Value Source: NWS Daily Summary

Daily Weather History Graph

Daily Weather History Graph

Search for Another Location

Airport or City:

Trip Planner

Search our weather history database for the weather conditions in past years. The results will help you decide how hot, cold, wet, or windy it might be!

Date:

Astronomy

Dec. 01, 2013 Rise Set
Actual Time 7:16 AM CST 4:50 PM CST
Civil Twilight 6:46 AM CST 5:20 PM CST
Nautical Twilight 6:13 AM CST 5:53 PM CST
Astronomical Twilight 5:40 AM CST 6:26 PM CST
Moon 5:35 AM CST (12/1) 4:00 PM CST (12/1)
Length of Visible Light 10h 33m
Length of Day
9h 33m
Waning Crescent, 2% of the Moon is Illuminated
Dec 1
Waning Crescent
Dec 2
New
Dec 9
First Quarter
Dec 17
Full
Dec 25
Last Quarter

Hourly Weather History & Observations

Time (CST) Temp. Windchill Dew Point Humidity Pressure Visibility Wind Dir Wind Speed Gust Speed Precip Events Conditions
12:52 AM 27.0 °F - 23.0 °F 85% 30.16 in - Calm Calm - N/A   Unknown
1:52 AM 26.1 °F - 21.9 °F 84% 30.15 in - Calm Calm - N/A   Unknown
2:52 AM 26.1 °F - 21.9 °F 84% 30.16 in - Calm Calm - N/A   Unknown
3:52 AM 25.0 °F - 21.9 °F 88% 30.14 in - Calm Calm - N/A   Unknown
4:52 AM 25.0 °F - 21.9 °F 88% 30.16 in - Calm Calm - N/A   Unknown
5:52 AM 30.0 °F 25.2 °F 27.0 °F 88% 30.15 in - NNW 4.6 mph - N/A   Unknown
6:52 AM 28.9 °F 25.2 °F 26.1 °F 89% 30.18 in - North 3.5 mph - N/A   Unknown
7:52 AM 28.9 °F - 25.0 °F 85% 30.19 in - Calm Calm - N/A   Unknown
8:52 AM 35.1 °F - 28.0 °F 76% 30.20 in - Calm Calm - N/A   Unknown
9:52 AM 39.0 °F 35.7 °F 30.0 °F 70% 30.19 in - NNE 4.6 mph - N/A   Unknown
10:52 AM 44.1 °F 42.5 °F 30.9 °F 60% 30.17 in - Variable 3.5 mph - N/A   Unknown
11:52 AM 46.9 °F - 30.9 °F 54% 30.13 in - ESE 4.6 mph - N/A   Unknown
12:52 PM 50.0 °F - 32.0 °F 50% 30.09 in - Calm Calm - N/A   Unknown
1:52 PM 52.0 °F - 32.0 °F 47% 30.06 in - ESE 3.5 mph - N/A   Unknown
2:52 PM 54.0 °F - 32.0 °F 43% 30.05 in - Calm Calm - N/A   Unknown
3:52 PM 53.1 °F - 32.0 °F 45% 30.03 in - Calm Calm - N/A   Unknown
4:52 PM 46.9 °F - 32.0 °F 56% 30.04 in - Calm Calm - N/A   Unknown
5:52 PM 39.9 °F 37.8 °F 30.0 °F 68% 30.03 in - NNE 3.5 mph - N/A   Unknown
6:52 PM 39.0 °F - 30.9 °F 73% 30.01 in - Calm Calm - N/A   Unknown
7:52 PM 41.0 °F - 33.1 °F 73% 30.00 in - Calm Calm - N/A   Unknown
8:52 PM 41.0 °F 39.0 °F 32.0 °F 70% 29.99 in - North 3.5 mph - N/A   Unknown
9:52 PM 42.1 °F 40.2 °F 30.9 °F 65% 29.96 in - East 3.5 mph - N/A   Unknown
10:52 PM 39.0 °F - 30.0 °F 70% 29.95 in - Calm Calm - N/A   Unknown
11:52 PM 36.0 °F - 28.9 °F 76% 29.94 in - Calm Calm - N/A   Unknown